Regional Weather Roundup
Issued by NWS

Home | Current Version | Previous Version | Text Only | Print | Product List | Glossary On
Versions: 1 2 3 4 5 6 7 8 9 10 11 12 13 14 15 16 17 18 19 20 21 22 23 24 25 26 27 28 29 30 31 32 33 34 35 36 37 38 39 40 41 42 43 44 45 46 47 48 49 50
000
ASUS45 KPSR 251810
RWRAZ

ARIZONA REGIONAL HOURLY WEATHER ROUNDUP
NATIONAL WEATHER SERVICE PHOENIX AZ
1100 AM MST SUN JAN 25 2015

NOTE: FAIR INDICATES FEW OR NO CLOUDS BELOW 12,000 FEET WITH NO
SIGNIFICANT WEATHER AND/OR OBSTRUCTIONS TO VISIBILITY.

AZZ001>003-036-251900-
NORTHWEST ARIZONA

CITY           SKY/WX    TMP DP  RH WIND       PRES   REMARKS
BULLHEAD CITY  SUNNY     68  34  28 N37G45    30.16F
KINGMAN        SUNNY     57  23  26 N13       30.27R
6HR MIN TEMP:  37; 6HR MAX TEMP:  57;

$$

AZZ004>008-015-016-018-251900-
NORTH CENTRAL ARIZONA

CITY           SKY/WX    TMP DP  RH WIND       PRES   REMARKS
GRAND CANYON   SUNNY     50  22  33 NE14G21   30.36S
6HR MIN TEMP:  23; 6HR MAX TEMP:  50;

PRESCOTT       SUNNY     52  18  26 N6        30.28S
6HR MIN TEMP:  25; 6HR MAX TEMP:  52;

FLAGSTAFF      SUNNY     49  21  33 NE15G26   30.36R
6HR MIN TEMP:  37; 6HR MAX TEMP:  49;

PAYSON         SUNNY     59  21  23 NE15G22   30.27S
$$

AZZ009>014-017-251900-
NORTHEAST ARIZONA

CITY           SKY/WX    TMP DP  RH WIND       PRES   REMARKS
WINSLOW        SUNNY     43  21  41 CALM      30.39R
6HR MIN TEMP:  21; 6HR MAX TEMP:  43;

SAINT JOHNS    SUNNY     42  19  39 CALM      30.35F
6HR MIN TEMP:  17; 6HR MAX TEMP:  42;

WINDOW ROCK    SUNNY     46  20  35 CALM      30.34S
6HR MIN TEMP:  19; 6HR MAX TEMP:  46;

SHOW LOW       SUNNY     39  18  41 NE8       30.38S WCI  34
$$

AZZ023-251900-
GREATER PHOENIX AREA

CITY           SKY/WX    TMP DP  RH WIND       PRES   REMARKS
PHOENIX        PTSUNNY   67  23  19 E9        30.10F
6HR MIN TEMP:  48; 6HR MAX TEMP:  67;

BUCKEYE          N/A     66  19  16 NE10      30.12S
GLENDALE       MOSUNNY   64  28  25 E6        30.13F
LUKE AFB       NOT AVBL
6HR MIN TEMP:  40; 6HR MAX TEMP:  64;

DEER VALLEY    SUNNY     65  20  17 SW6       30.11S
6HR MIN TEMP:  46; 6HR MAX TEMP:  67;

SCOTTSDALE     SUNNY     64  25  22 S3        30.13S
6HR MIN TEMP:  43; 6HR MAX TEMP:  64;

MESA-FALCON    MOSUNNY   63  21  20 NW12      30.11F
MESA-GATEWAY   MOSUNNY   55  27  33 CALM      30.13
CHANDLER       PTSUNNY   59  23  25 CALM      30.12F
$$

AZZ027-028-251900-
SOUTHWEST MARICOPA COUNTY AND PINAL COUNTY

CITY           SKY/WX    TMP DP  RH WIND       PRES   REMARKS
CASA GRANDE    PTSUNNY   63  21  20 NE14      30.12S
6HR MIN TEMP:  46; 6HR MAX TEMP:  63;

GILA BEND      FAIR      61  23  23 N9        30.10S
6HR MIN TEMP:  46; 6HR MAX TEMP:  61;

$$

AZZ503-504-507>509-251900-
SOUTHEAST ARIZONA

CITY           SKY/WX    TMP DP  RH WIND       PRES   REMARKS
TUCSON         CLOUDY    63   9  12 SE10      30.14S
6HR MIN TEMP:  49; 6HR MAX TEMP:  63;

DAVIS-MONTHAN  CLOUDY    62  13  14 SE8       30.12S
6HR MIN TEMP:  50; 6HR MAX TEMP:  62;

RYAN FIELD       N/A     61  19  20 NE5       30.14
NOGALES        CLOUDY    60  15  17 VRB3      30.16R
6HR MIN TEMP:  43; 6HR MAX TEMP:  60;

SIERRA VISTA   CLOUDY    52  11  19 NE5       30.22R
6HR MIN TEMP:  40; 6HR MAX TEMP:  52;

DOUGLAS        PTSUNNY   52  14  22 NW6       30.21S
6HR MIN TEMP:  31; 6HR MAX TEMP:  52;

SAFFORD        MOSUNNY   53  20  27 E9        30.24S
6HR MIN TEMP:  33; 6HR MAX TEMP:  53;

$$

AZZ020-021-025-026-031-251900-
SOUTHWEST ARIZONA

CITY           SKY/WX    TMP DP  RH WIND       PRES   REMARKS
YUMA           PTSUNNY   64  30  27 NE9       30.09R
6HR MIN TEMP:  52; 6HR MAX TEMP:  64;

$$

CAZ031-033-041-043-047-048-061-251900-
SOUTHERN CALIFORNIA

CITY           SKY/WX    TMP DP  RH WIND       PRES   REMARKS
DOWNTOWN L.A.  SUNNY     71  33  24 CALM      30.03S
6HR MIN TEMP:  48; 6HR MAX TEMP:  71;

L.A. AIRPORT   MOSUNNY   71  30  21 CALM      30.04S
6HR MIN TEMP:  48; 6HR MAX TEMP:  71;

SAN DIEGO      PTSUNNY   67  33  28 NW3       30.04S
6HR MIN TEMP:  53; 6HR MAX TEMP:  67;

BURBANK        SUNNY     70  30  22 E5        30.05R
6HR MIN TEMP:  49; 6HR MAX TEMP:  70;

ONTARIO        MOSUNNY   74  27  17 N3        30.05S
6HR MIN TEMP:  58; 6HR MAX TEMP:  74;

RIVERSIDE      SUNNY     74  25  16 E3        30.08R
6HR MIN TEMP:  47; 6HR MAX TEMP:  75;

PALM SPRINGS   MOSUNNY   78  23  13 VRB5      30.14S
6HR MIN TEMP:  60; 6HR MAX TEMP:  78;

EL CENTRO NAS  SUNNY     71  23  16 W6        30.11R
6HR MIN TEMP:  41; 6HR MAX TEMP:  71;

IMPERIAL       MOSUNNY   69  29  22 W5        30.11R
6HR MIN TEMP:  43; 6HR MAX TEMP:  69;

BLYTHE         SUNNY     64  34  32 E7        30.14R
6HR MIN TEMP:  49; 6HR MAX TEMP:  65;

NEEDLES        SUNNY     71  31  22 N22G33    30.16F
6HR MIN TEMP:  59; 6HR MAX TEMP:  71;

$$

NVZ020-UTZ003-251900-
SOUTHERN NEVADA-UTAH

CITY           SKY/WX    TMP DP  RH WIND       PRES   REMARKS
LAS VEGAS      SUNNY     61  28  28 CALM      30.26S
6HR MIN TEMP:  45; 6HR MAX TEMP:  62;

SALT LAKE CITY MOSUNNY   44  28  53 CALM      30.47R
6HR MIN TEMP:  31; 6HR MAX TEMP:  44;

$$

NMZ009-TXZ055-251900-
NEW MEXICO-WEST TEXAS

CITY           SKY/WX    TMP DP  RH WIND       PRES   REMARKS
ALBUQUERQUE    MOSUNNY   44  19  36 NW6       30.34R
6HR MIN TEMP:  26; 6HR MAX TEMP:  44;

EL PASO        PTSUNNY   53  24  32 N10       30.29R
6HR MIN TEMP:  30; 6HR MAX TEMP:  53;

$$


........................KEY........................
SKY/WX - SKY CONDITION/WEATHER
TMP    - TEMPERATURE IN FAHRENHEIT
DP     - DEW POINT IN FAHRENHEIT
RH     - RELATIVE HUMIDITY IN PERCENT
WIND   - DIRECTION AND SPEED IN MILES PER HOUR (MPH)
VRB    - VARIABLE WIND DIRECTION
PRES   - MEAN SEA LEVEL PRESSURE IN INCHES OF MERCURY
         F - FALLING PRESSURE   R - RISING PRESSURE
         S - STEADY PRESSURE
VSB    - VISIBILITY IN MILES
HX     - HEAT INDEX IN FAHRENHEIT
WCI    - WIND CHILL INDEX IN FAHRENHEIT
TC     - TEMPERATURE IN CELSIUS WHICH IS ALSO KNOWN AS
         TEMPERATURE IN CENTIGRADE
AFB    - AIR FORCE BASE
         LUKE AFB IS LUKE AIR FORCE BASE
         DAVIS-MONTHAN IS DAVIS-MONTHAN AIR FORCE BASE
NAS    - NAVAL AIR STATION
         EL CENTRO NAS IS EL CENTRO NAVAL AIR STATION
N/A    - NOT AVAILABLE



USA.gov is the U.S. government's official web portal to all federal, state and local government web resources and services.